Tracking 18980 objects as of 21-Feb-2018
HD Live streaming from Space Station
objects crossing your sky now

FENGYUN 1C DEB

Track FENGYUN 1C DEB now!
10-day predictions


NORAD ID: 31080
Int'l Code: 1999-025BGA
Perigee: 815.5 km
Apogee: 941.5 km
Inclination: 99.1 °
Period: 102.4 minutes
Semi major axis: 7249 km
RCS: 0.0084 m2 (small)
Launch date: May 10, 1999
Source: People's Republic of China (PRC)
Launch site: Taiyaun Space Center, China (TSC)

Note: This is SATELLITE DEBRIS
aabbcc
Your satellite tracking list
Your tracking list is empty




NASA's NSSDC Master Catalog

Two Line Element Set (TLE):
1 31080U 99025BGA 18036.00969780  .00000651  00000-0  40680-3 0  9997
2 31080  99.0836 113.3878 0086879 225.0146 134.3958 14.06510822557850
Source of the keplerian elements: AFSPC